Date_and_time,latitude,longitude,wind_speed,RelWindDirFrom,WindDirFrom,air_pressure,air_temperature,relative_humidity,Temp,platform_speed_wrt_ground,air_pressure_at_mean_sea_level,platform_orientation
2018-04-15 00:00,50.6304316666667,-96.9807566666667,6.7,7.8,24,1004.33,0.1,57,3.06,0.0,1032.68,165.5
2018-04-15 00:10,50.6304316666667,-96.9807583333333,5.8,6.5,20,1004.39,-0.1,62,3.07,0.0,1032.75,165.5
2018-04-15 00:20,50.6304316666667,-96.9807583333333,5.7,6.5,19,1004.42,-0.2,62,3.08,0.0,1032.76,165.5
2018-04-15 00:30,50.6304316666667,-96.9807583333333,6.0,6.7,27,1004.41,-0.2,64,3.09,0.0,1032.75,165.5
2018-04-15 00:40,50.6304333333333,-96.9807583333333,5.7,6.4,24,1004.45,-0.4,68,3.10,0.0,1032.81,165.5
2018-04-15 00:50,50.6304333333333,-96.9807566666667,5.8,6.4,24,1004.45,-0.6,71,3.11,0.0,1032.82,165.5
2018-04-15 01:00,50.630435,-96.9807566666667,5.5,6.2,29,1004.47,-0.8,70,3.12,0.0,1032.86,192.6
2018-04-15 01:10,50.630435,-96.9807566666667,4.4,5.3,23,1004.53,-1.1,71,3.12,0.0,1032.93,192.6
2018-04-15 01:20,50.6305,-96.9808,4.0,4.8,34,1004.55,-1.4,76,3.13,0.0,1032.96,192.6
2018-04-15 01:30,50.6304466666667,-96.980765,4.2,5.4,38,1004.60,-1.7,78,3.14,0.0,1033.02,192.6
2018-04-15 01:40,50.6304416666667,-96.98076,3.7,4.5,38,1004.64,-2.0,84,3.15,0.0,1033.08,192.6
2018-04-15 01:50,50.6304416666667,-96.9807583333333,3.2,3.7,29,1004.76,-2.2,88,3.15,0.0,1033.21,192.6
2018-04-15 02:00,50.6304433333333,-96.9807583333333,3.2,4.0,11,1004.89,-2.3,89,3.16,0.0,1033.36,270.0
2018-04-15 02:10,50.6304216666667,-96.9807466666667,3.8,4.2,12,1004.93,-2.3,82,3.16,0.0,1033.40,270.0
2018-04-15 02:20,50.630445,-96.98076,4.1,4.6,21,1004.98,-2.2,79,3.16,0.0,1033.45,270.0
2018-04-15 02:30,50.6304383333333,-96.98076,4.3,5.4,31,1004.97,-2.2,80,3.17,0.0,1033.46,270.0
2018-04-15 02:40,50.6304466666667,-96.9807683333333,4.6,5.6,41,1004.93,-2.3,80,3.17,0.0,1033.43,270.0
2018-04-15 02:50,50.6304433333333,-96.9807616666667,5.7,7.6,61,1004.87,-2.4,81,3.18,0.0,1033.38,270.0
2018-04-15 03:00,50.6304466666667,-96.9807616666667,7.2,8.1,69,1004.86,-2.1,74,3.18,0.0,1033.37,18.9
2018-04-15 03:10,50.630445,-96.98076,7.2,8.2,71,1004.83,-2.2,76,3.18,0.0,1033.36,18.9
2018-04-15 03:20,50.6304416666667,-96.98076,6.8,7.8,81,1004.84,-2.1,75,3.19,0.0,1033.38,18.9
2018-04-15 03:30,50.63044,-96.9807583333333,6.5,7.7,87,1004.88,-2.0,71,3.19,0.0,1033.43,18.9
2018-04-15 03:40,50.63044,-96.9807583333333,7.3,9.8,96,1004.82,-1.9,67,3.18,0.0,1033.38,18.9
2018-04-15 03:50,50.6304383333333,-96.9807566666667,9.3,11.7,98,1004.78,-1.7,61,3.18,0.0,1033.34,18.9
2018-04-15 04:00,50.6304383333333,-96.9807566666667,10.8,12.8,101,1004.71,-1.8,61,3.17,0.0,1033.26,360.0
2018-04-15 04:10,50.6304416666667,-96.9807783333333,11.4,13.1,103,1004.70,-1.8,60,3.16,0.0,1033.25,360.0
2018-04-15 04:20,50.6304366666667,-96.9807616666667,10.8,12.4,104,1004.69,-2.0,60,3.16,0.0,1033.25,360.0
2018-04-15 04:30,50.6304333333333,-96.9807416666667,10.0,11.2,103,1004.62,-2.2,62,3.17,0.0,1033.19,360.0
2018-04-15 04:40,50.6304366666667,-96.9807566666667,9.9,11.5,106,1004.56,-2.4,63,3.16,0.0,1033.15,360.0
2018-04-15 04:50,50.6304316666667,-96.9807566666667,9.6,10.9,109,1004.50,-2.5,64,3.15,0.0,1033.07,360.0
2018-04-15 05:00,50.6304316666667,-96.98076,9.8,10.8,109,1004.41,-2.6,66,3.15,0.0,1032.99,142.0
2018-04-15 05:10,50.6304316666667,-96.9807566666667,9.1,10.4,105,1004.31,-2.9,69,3.15,0.0,1032.91,142.0
2018-04-15 05:20,50.6304183333333,-96.9807683333333,8.6,9.5,102,1004.24,-3.3,73,3.15,0.0,1032.85,142.0
2018-04-15 05:30,50.6304266666667,-96.9807633333333,8.3,9.7,103,1004.25,-3.5,74,3.15,0.0,1032.86,142.0
2018-04-15 05:40,50.6304283333333,-96.9807683333333,8.5,9.4,105,1004.25,-3.4,69,3.15,0.0,1032.84,142.0
2018-04-15 05:50,50.6304266666667,-96.9807666666667,7.8,9.1,108,1004.27,-3.4,68,3.15,0.0,1032.86,142.0
2018-04-15 06:00,50.6304283333333,-96.980765,6.8,7.7,106,1004.30,-3.5,69,3.14,0.0,1032.91,360.0
2018-04-15 06:10,50.6304266666667,-96.9807666666667,7.1,7.9,106,1004.24,-3.7,69,3.12,0.0,1032.86,360.0
2018-04-15 06:20,50.6304283333333,-96.980765,7.1,8.1,106,1004.12,-3.8,69,3.12,0.0,1032.76,360.0
2018-04-15 06:30,50.6304283333333,-96.980765,6.7,7.6,107,1003.98,-3.8,69,3.11,0.0,1032.62,360.0
2018-04-15 06:40,50.6304366666667,-96.98076,6.4,7.4,112,1003.98,-3.9,68,3.11,0.0,1032.64,360.0
2018-04-15 06:50,50.630435,-96.9807616666667,5.4,6.9,120,1004.02,-3.9,69,3.11,0.0,1032.69,360.0
2018-04-15 07:00,50.6304483333333,-96.9807383333333,5.3,6.4,116,1003.94,-4.0,70,3.11,0.0,1032.62,68.5
2018-04-15 07:10,50.6304433333333,-96.9807516666667,4.5,6.3,112,1003.82,-4.2,71,3.10,0.0,1032.53,68.5
2018-04-15 07:20,50.6304416666667,-96.9807583333333,2.1,3.3,119,1003.84,-4.3,71,3.09,0.0,1032.57,68.5
2018-04-15 07:30,50.63044,-96.980755,0.9,1.8,117,1003.76,-4.4,69,3.09,0.0,1032.49,68.5
2018-04-15 07:40,50.6304383333333,-96.980755,1.3,2.7,97,1003.70,-4.4,68,3.08,0.0,1032.43,68.5
2018-04-15 07:50,50.630415,-96.9807633333333,1.7,4.0,97,1003.64,-4.5,66,3.08,0.0,1032.37,68.5
2018-04-15 08:00,50.6304316666667,-96.9807533333333,3.0,4.5,105,1003.62,-4.5,65,3.08,0.0,1032.36,90.0
2018-04-15 08:10,50.6304366666667,-96.9807516666667,4.0,4.9,107,1003.56,-4.7,68,3.07,0.0,1032.31,90.0
2018-04-15 08:20,50.6304433333333,-96.980765,4.5,5.7,106,1003.51,-4.9,69,3.07,0.0,1032.28,90.0
2018-04-15 08:30,50.630435,-96.98076,5.2,6.9,107,1003.44,-5.0,69,3.06,0.0,1032.22,90.0
2018-04-15 08:40,50.6304333333333,-96.980765,6.6,7.9,105,1003.40,-5.1,69,3.06,0.0,1032.18,90.0
2018-04-15 08:50,50.6304316666667,-96.9807616666667,8.2,9.9,105,1003.43,-5.0,66,3.06,0.0,1032.21,90.0
2018-04-15 09:00,50.6304316666667,-96.9807583333333,9.7,11.2,106,1003.43,-4.8,65,3.06,0.0,1032.21,12.6
2018-04-15 09:10,50.6304316666667,-96.98076,9.8,10.8,106,1003.50,-4.8,64,3.06,0.0,1032.29,12.6
2018-04-15 09:20,50.6304316666667,-96.98076,9.0,11.1,108,1003.64,-4.9,65,3.06,0.0,1032.44,12.6
2018-04-15 09:30,50.6304316666667,-96.9807566666667,7.1,9.1,107,1003.84,-5.0,66,3.05,0.0,1032.66,12.6
2018-04-15 09:40,50.6304416666667,-96.98076,4.7,6.1,100,1003.93,-5.2,67,3.04,0.0,1032.76,12.6
2018-04-15 09:50,50.6304416666667,-96.9807566666667,3.1,3.6,95,1004.02,-5.3,67,3.04,0.0,1032.86,12.6
2018-04-15 10:00,50.63044,-96.9807583333333,3.3,4.0,90,1004.06,-5.5,68,3.04,0.0,1032.93,248.5
2018-04-15 10:10,50.63044,-96.98076,2.5,3.9,66,1004.20,-5.7,69,3.04,0.0,1033.09,248.5
2018-04-15 10:20,50.6304383333333,-96.9807583333333,2.1,2.9,6,1004.31,-5.9,70,3.03,0.0,1033.22,248.5
2018-04-15 10:30,50.63044,-96.9807566666667,2.7,3.6,6,1004.35,-5.7,65,3.03,0.0,1033.25,248.5
2018-04-15 10:40,50.6304383333333,-96.9807566666667,3.8,4.3,8,1004.40,-5.6,62,3.03,0.0,1033.29,248.5
2018-04-15 10:50,50.6304383333333,-96.9807566666667,4.2,4.6,17,1004.49,-5.6,61,3.03,0.0,1033.37,248.5
2018-04-15 11:00,50.6304383333333,-96.980755,4.6,5.2,24,1004.57,-5.8,63,3.03,0.0,1033.48,345.5
2018-04-15 11:10,50.6304383333333,-96.9807533333333,5.1,5.5,31,1004.64,-6.3,69,3.03,0.0,1033.57,345.5
2018-04-15 11:20,50.6304383333333,-96.9807533333333,4.8,5.5,46,1004.67,-6.7,73,3.02,0.0,1033.64,345.5
2018-04-15 11:30,50.6304383333333,-96.980755,3.9,4.5,60,1004.68,-6.6,70,3.01,0.0,1033.65,345.5
2018-04-15 11:40,50.6304383333333,-96.9807533333333,4.2,4.7,67,1004.71,-6.4,68,3.01,0.0,1033.68,345.5
2018-04-15 11:50,50.6304016666667,-96.9807566666667,3.3,4.6,43,1004.86,-6.8,73,3.01,0.0,1033.86,345.5
2018-04-15 12:00,50.6304433333333,-96.9807516666667,3.1,3.7,29,1004.91,-7.1,75,3.01,0.0,1033.95,41.3
2018-04-15 12:10,50.63043,-96.9807433333333,4.3,5.2,31,1004.92,-7.1,73,3.00,0.0,1033.96,41.3
2018-04-15 12:20,50.6304183333333,-96.980735,5.4,6.1,43,1004.89,-7.1,74,3.00,0.0,1033.92,41.3
2018-04-15 12:30,50.6304066666667,-96.9807333333333,5.6,6.0,53,1004.94,-7.0,72,2.98,0.0,1033.96,41.3
2018-04-15 12:40,50.6304283333333,-96.9807433333333,4.6,5.1,41,1005.03,-7.1,75,2.96,0.0,1034.06,41.3
2018-04-15 12:50,50.6304316666667,-96.980745,4.3,5.0,44,1005.13,-7.5,80,2.95,0.0,1034.20,41.3
2018-04-15 13:00,50.6304333333333,-96.980745,5.7,6.9,59,1005.28,-7.2,76,2.94,0.0,1034.37,143.4
2018-04-15 13:10,50.6304316666667,-96.9807483333333,5.9,6.8,59,1005.36,-6.9,73,2.93,0.0,1034.45,143.4
2018-04-15 13:20,50.6304316666667,-96.98075,4.8,5.5,31,1005.38,-7.0,76,2.93,0.0,1034.47,143.4
2018-04-15 13:30,50.63043,-96.9807483333333,5.1,6.5,19,1005.44,-7.0,79,2.93,0.0,1034.52,143.4
2018-04-15 13:40,50.63043,-96.98075,6.5,7.4,27,1005.33,-7.1,78,2.94,0.0,1034.43,143.4
2018-04-15 13:50,50.63043,-96.9807516666667,6.5,7.4,36,1005.35,-6.9,75,2.94,0.0,1034.46,143.4
2018-04-15 14:00,50.63043,-96.98075,6.0,7.0,30,1005.36,-6.8,74,2.94,0.0,1034.46,360.0
2018-04-15 14:10,50.63043,-96.98075,5.8,6.5,25,1005.20,-6.6,73,2.93,0.0,1034.29,360.0
2018-04-15 14:20,50.6304583333333,-96.9807733333333,5.5,6.3,24,1005.14,-6.3,73,2.92,0.0,1034.21,360.0
2018-04-15 14:30,50.63044,-96.980765,5.2,6.1,13,1005.25,-6.0,71,2.92,0.0,1034.30,360.0
2018-04-15 14:40,50.630435,-96.9807633333333,5.0,6.3,14,1005.21,-5.6,61,2.91,0.0,1034.26,360.0
2018-04-15 14:50,50.630435,-96.980765,5.3,6.7,24,1005.14,-5.1,63,2.91,0.0,1034.16,360.0
2018-04-15 15:00,50.6304366666667,-96.980765,6.6,7.5,19,1005.03,-5.3,67,2.90,0.0,1034.04,240.8
2018-04-15 15:10,50.6304366666667,-96.9807633333333,6.7,7.5,22,1004.93,-5.2,67,2.88,0.0,1033.94,240.8
2018-04-15 15:20,50.630435,-96.9807633333333,6.6,7.6,29,1004.84,-5.1,67,2.87,0.0,1033.84,240.8
2018-04-15 15:30,50.6304366666667,-96.9807616666667,6.4,7.4,34,1004.67,-5.1,66,2.87,0.0,1033.66,240.8
2018-04-15 15:40,50.6304366666667,-96.9807616666667,6.5,7.2,32,1004.60,-4.9,67,2.86,0.0,1033.57,240.8
2018-04-15 15:50,50.6304366666667,-96.9807633333333,6.0,7.2,33,1004.51,-4.7,68,2.86,0.0,1033.46,240.8
2018-04-15 16:00,50.6304616666667,-96.9808233333333,6.3,7.3,34,1004.48,-4.4,65,2.87,0.0,1033.40,304.7
2018-04-15 16:10,50.6304383333333,-96.9807616666667,6.2,7.3,47,1004.29,-4.1,62,2.88,0.0,1033.18,304.7
2018-04-15 16:20,50.63044,-96.98076,6.0,7.2,36,1004.15,-3.9,60,2.88,0.0,1033.00,304.7
2018-04-15 16:30,50.6304416666667,-96.98076,5.9,7.8,30,1004.02,-3.7,56,2.88,0.0,1032.83,304.7
2018-04-15 16:40,50.6304416666667,-96.9807616666667,5.8,7.3,34,1003.91,-3.4,56,2.88,0.0,1032.68,304.7
2018-04-15 16:50,50.6304383333333,-96.9807633333333,6.1,8.0,38,1003.86,-3.2,58,2.88,0.0,1032.63,304.7
2018-04-15 17:00,50.63044,-96.9807583333333,5.7,7.5,49,1003.72,-3.0,55,2.88,0.0,1032.47,360.0
2018-04-15 17:10,50.6304366666667,-96.9807566666667,4.9,6.9,53,1003.60,-2.6,56,2.89,0.0,1032.32,360.0
2018-04-15 17:20,50.6304383333333,-96.9807566666667,2.8,5.0,56,1003.52,-2.0,48,2.89,0.0,1032.21,360.0
2018-04-15 17:30,50.6304383333333,-96.980755,1.6,3.0,80,1003.43,-0.8,42,2.89,0.0,1032.04,360.0
2018-04-15 17:40,50.6304383333333,-96.9807533333333,1.0,2.0,78,1003.40,0.3,38,2.89,0.0,1031.94,360.0
2018-04-15 17:50,50.6304366666667,-96.9807533333333,0.9,2.9,3,1003.39,0.4,39,2.89,0.0,1031.90,360.0
2018-04-15 18:00,50.6304366666667,-96.9807533333333,2.4,3.8,30,1003.29,-0.8,47,2.90,0.0,1031.85,90.0
2018-04-15 18:10,50.6304366666667,-96.980755,3.0,4.2,22,1003.14,-1.0,51,2.90,0.0,1031.69,90.0
2018-04-15 18:20,50.6304366666667,-96.9807566666667,3.8,5.7,32,1002.79,-1.2,53,2.91,0.0,1031.33,90.0
2018-04-15 18:30,50.6304366666667,-96.9807583333333,6.1,7.9,18,1002.32,-1.3,57,2.92,0.0,1030.84,90.0
2018-04-15 18:40,50.6304366666667,-96.9807583333333,6.8,7.9,22,1002.00,-1.2,58,2.92,0.0,1030.50,90.0
2018-04-15 18:50,50.6304366666667,-96.98076,7.7,9.1,34,1001.81,-1.1,57,2.93,0.0,1030.28,90.0
2018-04-15 19:00,50.63043,-96.98076,8.0,9.0,24,1001.70,-1.3,59,2.94,0.0,1030.16,136.6
2018-04-15 19:10,50.63044,-96.9807616666667,7.8,8.8,23,1001.69,-1.2,60,2.95,0.0,1030.11,136.6
2018-04-15 19:20,50.63044,-96.98076,8.1,9.0,23,1001.94,-1.0,61,2.96,0.0,1030.30,136.6
2018-04-15 19:30,50.63044,-96.9807616666667,7.9,9.0,18,1002.07,-0.9,61,2.97,0.0,1030.36,136.6
2018-04-15 19:40,50.63044,-96.98076,7.3,9.2,20,1002.23,-0.6,59,2.99,0.0,1030.51,136.6
2018-04-15 19:50,50.63044,-96.9807583333333,7.4,8.3,28,1002.20,-0.4,58,3.00,0.0,1030.52,136.6
2018-04-15 20:00,50.63044,-96.9807583333333,6.7,7.9,25,1002.20,-0.4,61,3.01,0.0,1030.54,0.0
2018-04-15 20:10,50.6304383333333,-96.9807566666667,5.0,6.2,29,1002.37,-0.1,61,3.02,0.0,1030.71,0.0
2018-04-15 20:20,50.6304383333333,-96.980755,5.9,6.6,31,1002.39,0.1,62,3.03,0.0,1030.72,0.0
2018-04-15 20:30,50.63044,-96.9807533333333,5.1,5.9,24,1002.26,0.4,61,3.03,0.0,1030.57,0.0
2018-04-15 20:40,50.6304383333333,-96.9807533333333,5.8,6.9,24,1002.09,0.6,63,3.04,0.0,1030.38,0.0
2018-04-15 20:50,50.6304383333333,-96.980755,6.7,8.7,26,1001.96,0.7,58,3.04,0.0,1030.25,0.0
2018-04-15 21:00,50.63044,-96.9807566666667,6.9,8.2,30,1001.94,0.8,61,3.06,0.0,1030.22,347.4
2018-04-15 21:10,50.63044,-96.980755,7.1,8.1,29,1001.74,0.8,61,3.07,0.0,1030.01,347.4
2018-04-15 21:20,50.6304416666667,-96.980745,7.8,8.8,29,1001.50,0.9,59,3.07,0.0,1029.75,347.4
2018-04-15 21:30,50.63044,-96.980745,7.7,9.1,28,1001.28,0.9,62,3.08,0.0,1029.51,347.4
2018-04-15 21:40,50.63044,-96.9807466666667,7.7,8.8,25,1001.08,0.9,62,3.09,0.0,1029.29,347.4
2018-04-15 21:50,50.6304383333333,-96.9807466666667,6.8,8.3,41,1000.77,1.0,57,3.10,0.0,1028.96,347.4
2018-04-15 22:00,50.6304366666667,-96.9807483333333,6.5,7.8,40,1000.59,1.2,57,3.11,0.0,1028.75,14.5
2018-04-15 22:10,50.6304366666667,-96.98075,6.7,7.7,26,1000.62,1.1,61,3.12,0.0,1028.78,14.5
2018-04-15 22:20,50.6304366666667,-96.9807516666667,6.7,7.6,21,1000.69,1.1,62,3.12,0.0,1028.84,14.5
2018-04-15 22:30,50.6304366666667,-96.9807516666667,8.2,9.5,20,1000.66,1.1,60,3.13,0.0,1028.80,14.5
2018-04-15 22:40,50.6304366666667,-96.9807516666667,8.9,10.3,18,1000.60,1.0,62,3.14,0.0,1028.74,14.5
2018-04-15 22:50,50.6304383333333,-96.9807516666667,8.5,10.1,18,1000.53,1.1,57,3.15,0.0,1028.65,14.5
2018-04-15 23:00,50.6304383333333,-96.9807516666667,8.8,10.1,17,1000.48,1.0,57,3.16,0.0,1028.60,90.0
2018-04-15 23:10,50.6304383333333,-96.9807516666667,8.7,9.8,15,1000.38,1.0,57,3.16,0.0,1028.50,90.0
2018-04-15 23:20,50.6304383333333,-96.9807533333333,7.5,8.8,18,1000.37,0.9,58,3.17,0.0,1028.49,90.0
2018-04-15 23:30,50.6304383333333,-96.9807516666667,6.5,7.2,25,1000.32,1.0,59,3.18,0.0,1028.44,90.0
